Date String (YYYY-MM-DD hh:mm:ss) UTC,Instrument flags,Ambient pressure (hPa),Sample flow (lpm),Bypass flow (lpm),Sample temperature (°C),Ambient temperature (°C),ASC tube jacket temperature (°C),LED temperature (°C),Box temperature (°C),Sample RH (%),Span deviation,Mass concentration (μg/m³),Mass concentration (μg/m³),Mass concentration (μg/m³)
DateTimeUTC,F1_M11,P_M11,Q1_M11,Q2_M11,T1_M11,T2_M11,T3_M11,T4_M11,T5_M11,U1_M11,ZSPAN_M11,X0_M11,X2_M11,X1_M11
2021-09-29 09:00:00,,0819.9,5.01,0.00,30.0,28.8,00.0,39.1,31.7,19.6,0001.7,0010.48,0004.56,0003.90
2021-09-29 09:01:00,,0820.0,4.99,0.00,30.0,28.9,00.0,39.1,31.7,19.6,0001.8,0010.73,0004.59,0003.91
2021-09-29 09:02:00,,0820.0,5.01,0.00,30.0,29.0,00.0,39.1,31.8,19.8,0001.9,0011.20,0004.62,0003.93
2021-09-29 09:03:00,,0820.0,5.01,0.00,30.0,29.0,00.0,39.1,31.8,19.8,0002.0,0011.04,0004.60,0003.94
2021-09-29 09:04:00,,0820.0,4.99,0.00,30.1,29.1,00.0,39.1,31.8,19.6,0002.0,0011.10,0004.62,0003.93
2021-09-29 09:05:00,,0820.0,5.01,0.00,30.1,29.1,00.0,39.1,31.9,19.7,0001.9,0011.06,0004.62,0003.94
2021-09-29 09:06:00,,0820.0,4.99,0.00,30.1,29.2,00.0,39.2,31.9,20.1,0002.0,0011.18,0004.64,0003.94
2021-09-29 09:07:00,,0820.0,5.00,0.00,30.1,29.2,00.0,39.2,31.9,19.7,0001.9,0011.48,0004.62,0003.92
2021-09-29 09:08:00,,0820.0,5.00,0.00,30.1,29.2,00.0,39.2,31.9,19.5,0001.9,0011.94,0004.62,0003.91
2021-09-29 09:09:00,,0820.1,4.99,0.00,30.2,29.2,00.0,39.2,31.9,19.5,0001.9,0010.95,0004.61,0003.92
2021-09-29 09:10:00,,0820.1,5.01,0.00,30.2,29.3,00.0,39.2,32.0,19.5,0001.8,0011.01,0004.59,0003.92
2021-09-29 09:11:00,,0820.1,4.99,0.00,30.2,29.3,00.0,39.2,32.0,19.5,0001.3,0011.45,0004.59,0003.91
2021-09-29 09:12:00,,0820.1,5.02,0.00,30.2,29.3,00.0,39.2,32.0,19.4,0000.7,0011.50,0004.59,0003.91
2021-09-29 09:13:00,,0820.2,4.99,0.00,30.2,29.3,00.0,39.3,32.0,19.4,0000.8,0011.19,0004.60,0003.91
2021-09-29 09:14:00,,0820.2,4.99,0.00,30.3,29.3,00.0,39.3,32.0,19.4,0001.0,0011.78,0004.62,0003.90
2021-09-29 09:15:00,,0820.2,5.00,0.00,30.3,29.4,00.0,39.3,32.0,19.3,0001.2,0012.71,0004.65,0003.92
2021-09-29 09:16:00,,0820.2,4.99,0.00,30.3,29.4,00.0,39.3,32.1,19.3,0001.4,0012.88,0004.65,0003.91
2021-09-29 09:17:00,,0820.2,5.02,0.00,30.3,29.4,00.0,39.3,32.1,19.2,0001.5,0012.82,0004.62,0003.90
2021-09-29 09:18:00,,0820.2,4.99,0.00,30.3,29.4,00.0,39.3,32.1,19.2,0001.5,0012.46,0004.63,0003.91
2021-09-29 09:19:00,,0820.2,5.00,0.00,30.3,29.4,00.0,39.4,32.1,19.2,0001.4,0012.62,0004.65,0003.91
2021-09-29 09:20:00,,0820.2,5.00,0.00,30.4,29.5,00.0,39.4,32.1,19.2,0001.5,0012.97,0004.65,0003.90
2021-09-29 09:21:00,,0820.2,5.01,0.00,30.4,29.5,00.0,39.4,32.1,19.2,0001.5,0013.27,0004.68,0003.90
2021-09-29 09:22:00,,0820.2,4.99,0.00,30.4,29.5,00.0,39.4,32.2,19.2,0001.9,0013.18,0004.69,0003.89
2021-09-29 09:23:00,,0820.2,4.99,0.00,30.4,29.5,00.0,39.4,32.2,19.1,0002.4,0013.09,0004.70,0003.89
2021-09-29 09:24:00,,0820.2,5.00,0.00,30.4,29.5,00.0,39.4,32.2,19.1,0002.7,0012.92,0004.65,0003.89
2021-09-29 09:25:00,,0820.2,4.99,0.00,30.4,29.6,00.0,39.5,32.2,19.1,0002.5,0012.64,0004.60,0003.89
2021-09-29 09:26:00,,0820.2,5.01,0.00,30.4,29.6,00.0,39.5,32.2,19.1,0002.2,0012.03,0004.57,0003.88
2021-09-29 09:27:00,,0820.2,5.00,0.00,30.4,28.3,00.0,39.5,31.9,19.1,0002.0,0012.34,0004.55,0003.88
2021-09-29 09:28:00,,0820.2,4.99,0.00,30.2,26.6,00.0,39.4,31.4,19.3,0001.6,0012.21,0004.55,0003.89
2021-09-29 09:29:00,,0820.1,5.01,0.00,30.1,26.5,00.0,39.4,31.4,19.4,0001.9,0012.20,0004.54,0003.89
2021-09-29 09:30:00,,0820.2,5.01,0.00,30.0,26.9,00.0,39.3,31.4,19.6,0002.1,0011.92,0004.54,0003.89
2021-09-29 09:31:00,,0820.2,5.00,0.00,29.9,27.3,00.0,39.3,31.4,19.7,0002.4,0011.23,0004.54,0003.89
2021-09-29 09:32:00,,0820.2,5.00,0.00,29.9,27.6,00.0,39.2,31.5,19.7,0002.4,0010.63,0004.53,0003.89
2021-09-29 09:33:00,,0820.2,5.00,0.00,29.9,27.9,00.0,39.2,31.5,19.8,0002.4,0010.99,0004.52,0003.90
2021-09-29 09:34:00,,0820.2,5.00,0.00,29.9,28.2,00.0,39.2,31.6,19.7,0002.5,0011.34,0004.51,0003.90
2021-09-29 09:35:00,,0820.2,4.99,0.00,29.9,28.3,00.0,39.2,31.6,19.7,0002.0,0011.68,0004.47,0003.89
2021-09-29 09:36:00,,0820.2,5.01,0.00,30.0,28.5,00.0,39.2,31.6,19.6,0001.9,0012.10,0004.50,0003.89
2021-09-29 09:37:00,,0820.2,4.98,0.00,30.0,28.6,00.0,39.2,31.7,19.6,0002.1,0012.36,0004.50,0003.88
2021-09-29 09:38:00,,0820.2,5.01,0.00,30.0,28.7,00.0,39.1,31.7,19.6,0002.2,0011.95,0004.55,0003.88
2021-09-29 09:39:00,,0820.2,4.99,0.00,30.0,28.8,00.0,39.1,31.7,19.5,0002.5,0012.02,0004.53,0003.85
2021-09-29 09:40:00,,0820.1,5.01,0.00,30.0,28.9,00.0,39.1,31.8,19.4,0002.2,0011.96,0004.51,0003.85
2021-09-29 09:41:00,,0820.2,5.00,0.00,30.0,28.9,00.0,39.2,31.8,19.4,0001.9,0011.89,0004.49,0003.85
2021-09-29 09:42:00,,0820.2,4.99,0.00,30.1,29.0,00.0,39.2,31.8,19.4,0001.9,0011.95,0004.48,0003.85
2021-09-29 09:43:00,,0820.2,5.01,0.00,30.1,29.1,00.0,39.2,31.8,19.4,0002.1,0012.43,0004.44,0003.85
2021-09-29 09:44:00,,0820.2,4.99,0.00,30.1,29.1,00.0,39.2,31.9,19.4,0002.3,0011.96,0004.45,0003.85
2021-09-29 09:45:00,,0820.1,5.00,0.00,30.1,29.2,00.0,39.2,31.9,19.4,0002.2,0012.10,0004.48,0003.86
2021-09-29 09:46:00,,0820.2,5.01,0.00,30.1,29.2,00.0,39.2,31.9,19.3,0002.4,0012.49,0004.50,0003.87
2021-09-29 09:47:00,,0820.2,5.00,0.00,30.1,29.2,00.0,39.2,31.9,19.3,0002.6,0012.00,0004.51,0003.88
2021-09-29 09:48:00,,0820.2,4.99,0.00,30.2,29.3,00.0,39.2,31.9,19.3,0002.3,0011.81,0004.51,0003.88
2021-09-29 09:49:00,,0820.2,5.02,0.00,30.2,29.3,00.0,39.2,32.0,19.3,0002.0,0011.85,0004.46,0003.89
2021-09-29 09:50:00,,0820.2,5.00,0.00,30.2,29.3,00.0,39.2,32.0,19.3,0002.2,0012.31,0004.48,0003.93
2021-09-29 09:51:00,,0820.2,4.99,0.00,30.2,29.3,00.0,39.3,32.0,19.3,0002.4,0012.98,0004.53,0003.96
2021-09-29 09:52:00,,0820.2,5.00,0.00,30.2,29.4,00.0,39.3,32.0,19.3,0002.6,0013.10,0004.55,0003.98
2021-09-29 09:53:00,,0820.2,5.00,0.00,30.2,29.4,00.0,39.3,32.0,19.3,0002.2,0013.48,0004.59,0004.01
2021-09-29 09:54:00,,0820.2,5.01,0.00,30.3,29.4,00.0,39.3,32.0,19.3,0001.9,0013.40,0004.64,0004.04
2021-09-29 09:55:00,,0820.2,4.99,0.00,30.3,29.4,00.0,39.3,32.1,19.3,0001.5,0013.69,0004.66,0004.06
2021-09-29 09:56:00,,0820.2,5.01,0.00,30.3,29.4,00.0,39.4,32.1,19.3,0001.1,0013.34,0004.69,0004.09
2021-09-29 09:57:00,,0820.2,4.98,0.00,30.3,29.4,00.0,39.4,32.1,19.2,0001.5,0012.62,0004.71,0004.11
2021-09-29 09:58:00,,0820.2,5.01,0.00,30.3,29.5,00.0,39.4,32.1,19.2,0001.5,0012.21,0004.72,0004.13
2021-09-29 09:59:00,,0820.3,5.00,0.00,30.4,29.5,00.0,39.4,32.2,19.2,0001.7,0011.90,0004.73,0004.16
